Date String (YYYY-MM-DD hh:mm:ss) UTC,Instrument flags,absolute air pressure of the measurement (hPa),sample flow rate (lpm),inlet stack bypass flow (lpm),air temperature of the measurement (°C),ambient temperature measured by the external sensor (°C),aerosol sample conditioner tube jacket temperature (°C),OPC LED temperature (°C),internal box temperature (°C),relative humidity of the measurement (%),span deviation,mass concentration of particles derived from Lorenz-Mie calculation of OPC scattering (μg/m³),mass concentration of particles derived from Lorenz-Mie calculation of OPC scattering (μg/m³),mass concentration of particles derived from Lorenz-Mie calculation of OPC scattering (μg/m³)
DateTimeUTC,F1_M11,P_M11,Q1_M11,Q2_M11,T1_M11,T2_M11,T3_M11,T4_M11,T5_M11,U1_M11,ZSPAN_M11,X0_M11,X2_M11,X1_M11
2024-04-05 04:00:00,SystemResetWarning,0822.2,4.99,000.00,026.0,025.2,000.0,034.5,027.8,010.2,0000.0,0011.86,0003.17,0002.25
2024-04-05 04:01:00,SystemResetWarning,0822.3,5.02,000.00,026.0,025.2,000.0,034.5,027.8,010.1,0000.0,0011.72,0003.16,0002.23
2024-04-05 04:02:00,SystemResetWarning,0822.4,5.01,000.00,026.0,025.2,000.0,034.5,027.8,010.1,0000.0,0011.10,0003.17,0002.22
2024-04-05 04:03:00,SystemResetWarning,0822.4,4.98,000.00,026.0,025.2,000.0,034.5,027.8,010.1,0000.0,0010.44,0003.19,0002.20
2024-04-05 04:04:00,SystemResetWarning,0822.4,5.00,000.00,026.0,025.2,000.0,034.5,027.8,010.1,0000.0,0010.67,0003.22,0002.20
2024-04-05 04:05:00,SystemResetWarning,0822.4,5.00,000.00,026.0,025.2,000.0,034.5,027.8,010.1,0000.0,0011.06,0003.22,0002.18
2024-04-05 04:06:00,SystemResetWarning,0822.4,5.01,000.00,026.0,025.2,000.0,034.5,027.8,010.0,0000.0,0010.53,0003.17,0002.17
2024-04-05 04:07:00,SystemResetWarning,0822.4,5.01,000.00,026.0,025.2,000.0,034.5,027.8,010.0,0000.0,0009.96,0003.12,0002.13
2024-04-05 04:08:00,SystemResetWarning,0822.4,5.00,000.00,026.0,025.2,000.0,034.5,027.8,009.9,0000.0,0009.40,0003.11,0002.12
2024-04-05 04:09:00,SystemResetWarning,0822.4,4.99,000.00,026.0,025.1,000.0,034.5,027.8,009.9,0000.0,0008.69,0003.05,0002.09
2024-04-05 04:10:00,SystemResetWarning,0822.4,4.99,000.00,026.0,025.1,000.0,034.5,027.8,010.1,0000.0,0008.59,0003.04,0002.07
2024-04-05 04:11:00,SystemResetWarning,0822.4,4.99,000.00,025.9,025.2,000.0,034.5,027.8,010.0,0000.0,0007.69,0003.03,0002.07
2024-04-05 04:12:00,SystemResetWarning,0822.4,5.00,000.00,026.0,025.2,000.0,034.5,027.8,009.7,0000.0,0006.74,0003.02,0002.07
2024-04-05 04:13:00,SystemResetWarning,0822.4,5.02,000.00,025.9,025.2,000.0,034.5,027.8,009.5,0000.0,0006.79,0003.00,0002.06
2024-04-05 04:14:00,SystemResetWarning,0822.5,4.98,000.00,026.0,025.2,000.0,034.5,027.8,009.6,0000.0,0007.78,0002.93,0002.05
2024-04-05 04:15:00,SystemResetWarning,0822.9,4.99,000.00,026.0,025.2,000.0,034.5,027.8,009.7,0000.0,0008.08,0002.84,0002.06
2024-04-05 04:16:00,SystemResetWarning,0822.8,5.01,000.00,026.0,025.1,000.0,034.5,027.8,009.6,0000.0,0008.17,0002.84,0002.07
2024-04-05 04:17:00,SystemResetWarning,0822.9,5.01,000.00,026.0,025.1,000.0,034.5,027.8,010.9,0000.0,0008.51,0002.90,0002.07
2024-04-05 04:18:00,SystemResetWarning,0823.0,5.00,000.00,026.0,025.1,000.0,034.5,027.8,011.5,0000.0,0008.74,0002.98,0002.08
2024-04-05 04:19:00,SystemResetWarning,0823.0,4.98,000.00,025.9,025.0,000.0,034.5,027.7,011.8,0000.0,0008.75,0002.93,0002.09
2024-04-05 04:20:00,SystemResetWarning,0822.8,5.01,000.00,025.9,025.0,000.0,034.5,027.7,011.9,0000.0,0009.90,0002.93,0002.12
2024-04-05 04:21:00,SystemResetWarning,0822.9,5.01,000.00,025.9,024.9,000.0,034.5,027.7,011.9,0000.0,0010.89,0002.98,0002.13
2024-04-05 04:22:00,SystemResetWarning,0822.9,5.01,000.00,025.9,024.8,000.0,034.5,027.6,011.6,0000.0,0011.35,0003.03,0002.16
2024-04-05 04:23:00,SystemResetWarning,0822.9,5.00,000.00,025.9,024.8,000.0,034.5,027.6,011.5,0000.0,0011.70,0003.11,0002.18
2024-04-05 04:24:00,SystemResetWarning,0822.9,5.00,000.00,025.8,024.7,000.0,034.5,027.6,011.5,0000.0,0011.86,0003.12,0002.20
2024-04-05 04:25:00,SystemResetWarning,0823.1,4.98,000.00,025.8,024.7,000.0,034.5,027.5,011.5,0000.0,0011.73,0003.17,0002.25
2024-04-05 04:26:00,SystemResetWarning,0823.0,4.99,000.00,025.8,024.6,000.0,034.4,027.5,011.4,0000.0,0011.55,0003.22,0002.29
2024-04-05 04:27:00,SystemResetWarning,0823.0,5.01,000.00,025.8,024.6,000.0,034.4,027.5,011.3,0000.0,0011.44,0003.22,0002.30
2024-04-05 04:28:00,SystemResetWarning,0823.0,5.01,000.00,025.7,024.5,000.0,034.4,027.5,011.1,0000.0,0011.71,0003.18,0002.31
2024-04-05 04:29:00,SystemResetWarning,0823.0,5.00,000.00,025.7,024.5,000.0,034.4,027.5,010.9,0000.0,0011.72,0003.17,0002.31
2024-04-05 04:30:00,SystemResetWarning,0823.0,5.00,000.00,025.7,024.5,000.0,034.4,027.4,011.2,0000.0,0012.06,0003.20,0002.33
2024-04-05 04:31:00,SystemResetWarning,0823.0,4.99,000.00,025.7,024.5,000.0,034.4,027.4,011.3,0000.0,0012.19,0003.23,0002.33
2024-04-05 04:32:00,SystemResetWarning,0822.9,5.00,000.00,025.7,024.5,000.0,034.4,027.4,011.2,0000.0,0011.65,0003.24,0002.33
2024-04-05 04:33:00,SystemResetWarning,0822.9,5.01,000.00,025.6,024.4,000.0,034.4,027.4,011.1,0000.0,0011.35,0003.24,0002.34
2024-04-05 04:34:00,SystemResetWarning,0823.1,5.00,000.00,025.6,024.5,000.0,034.4,027.4,011.2,0000.0,0011.49,0003.23,0002.31
2024-04-05 04:35:00,SystemResetWarning,0823.1,5.01,000.00,025.6,024.5,000.0,034.3,027.4,011.2,0000.0,0011.30,0003.21,0002.30
2024-04-05 04:36:00,SystemResetWarning,0823.0,4.99,000.00,025.6,024.5,000.0,034.3,027.4,011.2,0000.0,0010.97,0003.20,0002.28
2024-04-05 04:37:00,SystemResetWarning,0823.0,5.00,000.00,025.6,024.5,000.0,034.3,027.4,011.1,0000.0,0010.42,0003.14,0002.27
2024-04-05 04:38:00,SystemResetWarning,0822.9,5.00,000.00,025.6,024.5,000.0,034.3,027.4,011.0,0000.0,0010.17,0003.13,0002.24
2024-04-05 04:39:00,SystemResetWarning,0822.9,4.99,000.00,025.6,024.5,000.0,034.3,027.4,010.9,0000.0,0010.90,0003.16,0002.26
2024-04-05 04:40:00,SystemResetWarning,0823.0,5.00,000.00,025.6,024.5,000.0,034.3,027.4,011.0,0000.0,0011.65,0003.15,0002.26
2024-04-05 04:41:00,SystemResetWarning,0822.9,5.00,000.00,025.6,024.5,000.0,034.3,027.4,010.7,0000.0,0012.16,0003.12,0002.25
2024-04-05 04:42:00,SystemResetWarning,0823.0,5.00,000.00,025.6,024.5,000.0,034.3,027.4,010.6,0000.0,0012.05,0003.10,0002.24
2024-04-05 04:43:00,SystemResetWarning,0822.8,5.01,000.00,025.6,024.6,000.0,034.3,027.4,010.5,0000.0,0011.40,0003.10,0002.24
2024-04-05 04:44:00,SystemResetWarning,0822.8,5.00,000.00,025.6,024.6,000.0,034.3,027.4,010.9,0000.0,0011.04,0003.10,0002.23
2024-04-05 04:45:00,SystemResetWarning,0822.8,5.00,000.00,025.6,024.7,000.0,034.3,027.4,010.8,0000.0,0011.15,0003.08,0002.24
2024-04-05 04:46:00,SystemResetWarning,0822.8,4.99,000.00,025.6,024.7,000.0,034.3,027.5,010.6,0000.0,0011.34,0003.10,0002.24
2024-04-05 04:47:00,SystemResetWarning,0822.8,4.98,000.00,025.6,024.7,000.0,034.3,027.5,010.2,0000.0,0011.78,0003.07,0002.24
2024-04-05 04:48:00,SystemResetWarning,0822.7,5.00,000.00,025.6,024.7,000.0,034.3,027.5,010.1,0000.0,0012.66,0003.07,0002.24
2024-04-05 04:49:00,SystemResetWarning,0822.8,5.00,000.00,025.6,024.7,000.0,034.3,027.5,010.0,0000.0,0013.16,0003.05,0002.23
2024-04-05 04:50:00,SystemResetWarning,0822.6,5.00,000.00,025.6,024.8,000.0,034.3,027.5,009.9,0000.0,0013.02,0003.04,0002.21
2024-04-05 04:51:00,SystemResetWarning,0822.8,5.00,000.00,025.6,024.8,000.0,034.3,027.5,009.9,0000.0,0011.83,0003.07,0002.20
2024-04-05 04:52:00,SystemResetWarning,0822.7,4.99,000.00,025.6,024.8,000.0,034.3,027.5,009.8,0000.0,0011.38,0003.09,0002.20
2024-04-05 04:53:00,SystemResetWarning,0822.9,4.99,000.00,025.6,024.8,000.0,034.3,027.5,009.7,0000.0,0011.29,0003.10,0002.19
2024-04-05 04:54:00,SystemResetWarning,0822.7,5.01,000.00,025.7,024.8,000.0,034.3,027.5,009.8,0000.0,0011.29,0003.09,0002.18
2024-04-05 04:55:00,SystemResetWarning,0822.7,5.01,000.00,025.7,024.8,000.0,034.3,027.5,009.7,0000.0,0011.04,0003.08,0002.17
2024-04-05 04:56:00,SystemResetWarning,0822.8,4.99,000.00,025.7,024.8,000.0,034.3,027.5,009.8,0000.0,0011.56,0003.09,0002.15
2024-04-05 04:57:00,SystemResetWarning,0822.7,4.99,000.00,025.7,024.8,000.0,034.3,027.5,009.9,0000.0,0011.70,0003.07,0002.13
2024-04-05 04:58:00,SystemResetWarning,0822.7,5.00,000.00,025.7,024.8,000.0,034.3,027.5,009.7,0000.0,0011.38,0003.08,0002.13
2024-04-05 04:59:00,SystemResetWarning,0822.8,5.00,000.00,025.7,024.8,000.0,034.3,027.5,009.7,0000.0,0010.94,0003.11,0002.13
